• în România
  • Lista ţărilor
  • Pe 7 zile
  • Temperatura apei
  • Hartă satelitară
  • Meteo pe hartă
  • Widget-uri
  • user-avatar
    Intrare

    Meteo pe oră la Maracaibo

    Astăzi, 17 August, Vineri

    Timp Temperatura Precipitaţii Vânt Presiune Umiditate
    00:00 +28°C° 0 mm 4 m/s 755 mmHg 79%
    01:00 +28°C° 0 mm 3 m/s 755 mmHg 82%
    02:00 +28°C° 0 mm 3 m/s 755 mmHg 82%
    03:00 +28°C° 0 mm 3 m/s 755 mmHg 83%
    04:00 +27°C° 0 mm 3 m/s 755 mmHg 84%
    05:00 +28°C° 0 mm 3 m/s 755 mmHg 82%
    06:00 +28°C° 0 mm 3 m/s 755 mmHg 80%
    07:00 +29°C° 0 mm 2 m/s 755 mmHg 77%
    08:00 +31°C° 0,1 mm 2 m/s 755 mmHg 70%
    09:00 +34°C° 0,1 mm 2 m/s 755 mmHg 63%
    10:00 +35°C° 0,1 mm 2 m/s 754 mmHg 55%
    11:00 +36°C° 0 mm 2 m/s 754 mmHg 52%
    12:00 +37°C° 0 mm 3 m/s 753 mmHg 48%
    13:00 +38°C° 0 mm 3 m/s 752 mmHg 45%
    14:00 +37°C° 0 mm 4 m/s 752 mmHg 47%
    15:00 +37°C° 0 mm 4 m/s 752 mmHg 49%
    16:00 +36°C° 0 mm 5 m/s 751 mmHg 51%
    17:00 +35°C° 0 mm 5 m/s 752 mmHg 58%
    18:00 +33°C° 0 mm 5 m/s 752 mmHg 64%
    19:00 +30°C° 0 mm 6 m/s 753 mmHg 71%
    20:00 +30°C° 0 mm 6 m/s 753 mmHg 73%
    21:00 +30°C° 0 mm 6 m/s 754 mmHg 74%
    22:00 +29°C° 0 mm 6 m/s 754 mmHg 76%
    23:00 +29°C° 0 mm 5 m/s 754 mmHg 76%

    Mâine, 18 August, Sâmbătă

    Timp Temperatura Precipitaţii Vânt Presiune Umiditate
    00:00 +29°C° 0 mm 5 m/s 754 mmHg 76%
    01:00 +29°C° 0 mm 5 m/s 754 mmHg 76%
    02:00 +29°C° 0,1 mm 4 m/s 754 mmHg 77%
    03:00 +28°C° 0,1 mm 4 m/s 753 mmHg 79%
    04:00 +28°C° 0,1 mm 3 m/s 753 mmHg 80%
    05:00 +28°C° 0,2 mm 3 m/s 753 mmHg 79%
    06:00 +29°C° 0,2 mm 3 m/s 753 mmHg 78%
    07:00 +29°C° 0,2 mm 3 m/s 754 mmHg 77%
    08:00 +30°C° 0 mm 3 m/s 754 mmHg 70%
    09:00 +33°C° 0 mm 3 m/s 754 mmHg 64%
    10:00 +34°C° 0 mm 2 m/s 754 mmHg 58%
    11:00 +35°C° 0 mm 2 m/s 753 mmHg 55%
    12:00 +36°C° 0 mm 3 m/s 752 mmHg 51%
    13:00 +37°C° 0 mm 3 m/s 752 mmHg 48%
    14:00 +37°C° 0 mm 3 m/s 751 mmHg 49%
    15:00 +36°C° 0 mm 3 m/s 751 mmHg 50%
    16:00 +36°C° 0 mm 3 m/s 750 mmHg 51%
    17:00 +34°C° 0,1 mm 3 m/s 751 mmHg 59%
    18:00 +33°C° 0,1 mm 3 m/s 751 mmHg 67%
    19:00 +30°C° 0,1 mm 4 m/s 752 mmHg 75%
    20:00 +29°C° 1 mm 4 m/s 752 mmHg 77%
    21:00 +29°C° 1 mm 4 m/s 753 mmHg 79%
    22:00 +29°C° 1 mm 4 m/s 753 mmHg 82%
    23:00 +28°C° 1 mm 3 m/s 753 mmHg 82%

    Poimâine, 19 August, Duminică

    Timp Temperatura Precipitaţii Vânt Presiune Umiditate
    00:00 +28°C° 1 mm 3 m/s 753 mmHg 83%
    01:00 +28°C° 1 mm 3 m/s 752 mmHg 83%
    02:00 +28°C° 0,2 mm 3 m/s 752 mmHg 83%
    03:00 +28°C° 0,2 mm 3 m/s 752 mmHg 83%
    04:00 +28°C° 0,2 mm 3 m/s 752 mmHg 83%
    05:00 +28°C° 1,1 mm 3 m/s 752 mmHg 82%
    06:00 +28°C° 1,1 mm 3 m/s 753 mmHg 81%
    07:00 +29°C° 1,1 mm 2 m/s 753 mmHg 79%
    08:00 +31°C° 0 mm 2 m/s 753 mmHg 72%
    09:00 +34°C° 0 mm 2 m/s 753 mmHg 64%
    10:00 +35°C° 0 mm 2 m/s 754 mmHg 56%
    11:00 +36°C° 0 mm 2 m/s 753 mmHg 52%
    12:00 +37°C° 0 mm 2 m/s 752 mmHg 49%
    13:00 +38°C° 0 mm 3 m/s 751 mmHg 45%
    14:00 +38°C° 0 mm 3 m/s 751 mmHg 47%
    15:00 +37°C° 0 mm 3 m/s 750 mmHg 49%
    16:00 +37°C° 0 mm 4 m/s 750 mmHg 51%
    17:00 +35°C° 0,4 mm 4 m/s 751 mmHg 60%
    18:00 +32°C° 0,4 mm 5 m/s 751 mmHg 70%
    19:00 +29°C° 0,4 mm 6 m/s 752 mmHg 79%
    20:00 +29°C° 0,1 mm 5 m/s 753 mmHg 81%
    21:00 +29°C° 0,1 mm 5 m/s 753 mmHg 82%
    22:00 +28°C° 0,1 mm 5 m/s 754 mmHg 83%
    23:00 +28°C° 0 mm 5 m/s 753 mmHg 84%

    20 August, Luni

    Timp Temperatura Precipitaţii Vânt Presiune Umiditate
    00:00 +28°C° 0 mm 4 m/s 753 mmHg 85%
    01:00 +28°C° 0 mm 4 m/s 753 mmHg 86%
    02:00 +28°C° 0,1 mm 4 m/s 752 mmHg 86%
    03:00 +28°C° 0,1 mm 3 m/s 752 mmHg 87%
    04:00 +27°C° 0,1 mm 3 m/s 752 mmHg 87%
    05:00 +28°C° 0 mm 3 m/s 753 mmHg 84%
    06:00 +29°C° 0 mm 2 m/s 753 mmHg 82%
    07:00 +29°C° 0 mm 2 m/s 754 mmHg 79%
    08:00 +31°C° 0 mm 2 m/s 754 mmHg 70%
    09:00 +35°C° 0 mm 2 m/s 754 mmHg 61%
    10:00 +36°C° 0 mm 1 m/s 754 mmHg 53%
    11:00 +38°C° 0 mm 2 m/s 753 mmHg 49%
    12:00 +38°C° 0 mm 3 m/s 752 mmHg 45%
    13:00 +39°C° 0 mm 3 m/s 751 mmHg 42%
    14:00 +39°C° 0 mm 3 m/s 751 mmHg 43%
    15:00 +40°C° 0 mm 4 m/s 750 mmHg 44%
    16:00 +38°C° 0 mm 4 m/s 750 mmHg 45%
    17:00 +36°C° 0 mm 4 m/s 751 mmHg 54%
    18:00 +34°C° 0 mm 5 m/s 751 mmHg 64%
    19:00 +30°C° 0 mm 5 m/s 752 mmHg 73%
    20:00 +30°C° 0 mm 5 m/s 753 mmHg 74%
    21:00 +30°C° 0 mm 5 m/s 753 mmHg 74%
    22:00 +30°C° 0 mm 5 m/s 754 mmHg 75%
    23:00 +30°C° 0 mm 4 m/s 753 mmHg 75%

    21 August, Marţi

    Timp Temperatura Precipitaţii Vânt Presiune Umiditate
    00:00 +29°C° 0 mm 4 m/s 753 mmHg 74%
    01:00 +29°C° 0 mm 4 m/s 753 mmHg 74%
    02:00 +29°C° 0,3 mm 4 m/s 753 mmHg 75%
    03:00 +29°C° 0,3 mm 3 m/s 753 mmHg 76%
    04:00 +28°C° 0,3 mm 3 m/s 753 mmHg 78%
    05:00 +29°C° 0 mm 3 m/s 753 mmHg 76%
    06:00 +29°C° 0 mm 3 m/s 754 mmHg 74%
    07:00 +30°C° 0 mm 3 m/s 754 mmHg 73%
    08:00 +31°C° 0 mm 3 m/s 754 mmHg 66%
    09:00 +34°C° 0 mm 2 m/s 754 mmHg 59%
    10:00 +36°C° 0 mm 2 m/s 754 mmHg 53%
    11:00 +37°C° 0 mm 3 m/s 753 mmHg 50%
    12:00 +38°C° 0 mm 3 m/s 752 mmHg 47%
    13:00 +38°C° 0 mm 4 m/s 751 mmHg 44%
    14:00 +38°C° 0 mm 4 m/s 751 mmHg 47%
    15:00 +37°C° 0 mm 5 m/s 750 mmHg 50%
    16:00 +36°C° 0 mm 5 m/s 750 mmHg 53%
    17:00 +34°C° 0 mm 5 m/s 751 mmHg 59%
    18:00 +33°C° 0 mm 6 m/s 751 mmHg 65%
    19:00 +30°C° 0 mm 6 m/s 752 mmHg 71%
    20:00 +30°C° 0 mm 6 m/s 752 mmHg 72%
    21:00 +30°C° 0 mm 6 m/s 753 mmHg 73%
    22:00 +30°C° 0 mm 5 m/s 753 mmHg 75%
    23:00 +30°C° 0 mm 5 m/s 753 mmHg 75%

    22 August, Miercuri

    Timp Temperatura Precipitaţii Vânt Presiune Umiditate
    00:00 +29°C° 0 mm 5 m/s 753 mmHg 75%
    01:00 +29°C° 0 mm 4 m/s 752 mmHg 75%
    02:00 +29°C° 0,1 mm 4 m/s 752 mmHg 75%
    03:00 +29°C° 0,1 mm 4 m/s 752 mmHg 76%
    04:00 +29°C° 0,1 mm 4 m/s 752 mmHg 76%
    05:00 +29°C° 0 mm 3 m/s 753 mmHg 75%
    06:00 +29°C° 0 mm 3 m/s 753 mmHg 74%
    07:00 +29°C° 0 mm 3 m/s 753 mmHg 73%
    08:00 +31°C° 0 mm 3 m/s 753 mmHg 68%
    09:00 +33°C° 0 mm 3 m/s 753 mmHg 62%
    10:00 +35°C° 0 mm 2 m/s 753 mmHg 56%
    11:00 +36°C° 0 mm 3 m/s 753 mmHg 53%
    12:00 +37°C° 0 mm 3 m/s 752 mmHg 49%
    13:00 +38°C° 0 mm 3 m/s 751 mmHg 45%
    14:00 +38°C° 0 mm 3 m/s 750 mmHg 46%
    15:00 +37°C° 0 mm 3 m/s 750 mmHg 47%
    16:00 +37°C° 0 mm 3 m/s 749 mmHg 48%
    17:00 +35°C° 0 mm 4 m/s 750 mmHg 55%
    18:00 +33°C° 0 mm 4 m/s 751 mmHg 62%
    19:00 +32°C° 0 mm 4 m/s 751 mmHg 69%
    20:00 +30°C° 0,2 mm 4 m/s 752 mmHg 73%
    21:00 +30°C° 0,2 mm 4 m/s 752 mmHg 77%
    22:00 +29°C° 0,2 mm 4 m/s 753 mmHg 81%
    23:00 +29°C° 1,5 mm 3 m/s 753 mmHg 82%
    Arată mai mult